Flag for France Weather past 2 weeks in Amsterdam Island, French Southern Territories, France

Now
56 °F

Cool.


Feels Like: 51 °F
Forecast: 55 / 58 °F
Wind: 23 mph from Northwest

Location: Martin De Vivies Ile Amsterdam

Current Time: Jul 29, 2014 at 10:14:17 AM

Latest Report: Jul 29, 2014 at 9:00 AM


Visibility: N/A

Pressure: 30.09 "Hg

Humidity: 96%

Dew point: 55 °F

Location of Amsterdam IslandLocation

Historic Weather in Amsterdam Island — Graph

°F

Amsterdam Island temperature yesterday

Maximum temperature yesterday: 58 °F (at 11:00 AM)
Minimum temperature yesterday: 53 °F (at 12:00 AM)
Average temperature yesterday: 55 °F

Past Weeks' High & Low Weather Summary

 TemperatureHumidityPressure
High61 °F (Jul 22, 12:00 PM)98% (Jul 20, 4:00 PM)30.49 "Hg (Jul 20, 4:00 PM)
Low42 °F (Jul 24, 12:00 PM)54% (Jul 24, 1:00 PM)29.44 "Hg (Jul 23, 5:00 AM)
Average54 °F83%30.11 "Hg
* Reported Jul 14 8:00 AM — Jul 29 8:00 AM, Amsterdam Island, Weather by CustomWeather, © 2014

Note: Actual official high and low records may vary slightly from our data, if they occured in-between our weather recording intervals... More about our weather records

Advertising

Amsterdam Island weather history for previous 24 hours

 ConditionsComfort  
Time TempWeatherWind HumidityBarometerVisibility
8:00 AM
Jul 29
57 °FCool.21 mph93%30.09 "HgN/A
7:00 AM56 °FCool.23 mph95%30.08 "HgN/A
6:00 AM56 °FCool.24 mph92%30.07 "HgN/A
5:00 AM57 °FCool.25 mph89%30.07 "HgN/A
4:00 AM57 °FCool.24 mph88%30.07 "HgN/A
3:00 AM56 °FCool.23 mph87%30.07 "HgN/A
2:00 AM57 °FCool.24 mph85%30.09 "HgN/A
1:00 AM57 °FCool.24 mph86%30.10 "HgN/A
12:00 AM56 °FCool.23 mph87%30.11 "HgN/A
11:00 PM
Jul 28
56 °FCool.22 mph87%30.13 "HgN/A
10:00 PM56 °FCool.23 mph86%30.14 "HgN/A
9:00 PM56 °FCool.24 mph86%30.15 "HgN/A
8:00 PM56 °FCool.26 mph87%30.16 "HgN/A
7:00 PM55 °FCool.28 mph86%30.16 "HgN/A
6:00 PM55 °FCool.29 mph85%30.16 "HgN/A
5:00 PM55 °FCool.29 mph87%30.16 "HgN/A
4:00 PM56 °FCool.29 mph85%30.17 "HgN/A
3:00 PM57 °FCool.31 mph82%30.18 "HgN/A
2:00 PM58 °FCool.30 mph83%30.19 "HgN/A
1:00 PM57 °FCool.32 mph83%30.20 "HgN/A
12:00 PM58 °FCool.29 mph83%30.22 "HgN/A
11:00 AM58 °FCool.26 mph81%30.25 "HgN/A
10:00 AM58 °FCool.25 mph85%30.26 "HgN/A
Weather by CustomWeather, © 2014

See weather overviewHow to use our weather pages